TimeCDT,TemperatureF,Dew PointF,Humidity,Sea Level PressureIn,VisibilityMPH,Wind Direction,Wind SpeedMPH,Gust SpeedMPH,PrecipitationIn,Events,Conditions,WindDirDegrees,DateUTC
12:53 AM,66.0,60.1,81,29.80,10.0,WNW,5.8,-,N/A,,Mostly Cloudy,290,2012-10-02 05:53:00
1:53 AM,64.4,59.0,83,29.79,10.0,West,4.6,-,N/A,,Mostly Cloudy,260,2012-10-02 06:53:00
2:53 AM,62.1,59.0,90,29.81,10.0,WSW,5.8,-,N/A,,Partly Cloudy,250,2012-10-02 07:53:00
3:53 AM,61.0,57.0,87,29.81,10.0,WSW,5.8,-,N/A,,Clear,250,2012-10-02 08:53:00
4:53 AM,60.1,57.9,93,29.82,9.0,West,3.5,-,N/A,,Clear,260,2012-10-02 09:53:00
5:53 AM,60.1,57.9,93,29.84,7.0,WSW,3.5,-,N/A,,Partly Cloudy,250,2012-10-02 10:53:00
6:53 AM,60.1,57.9,93,29.86,8.0,West,3.5,-,N/A,,Partly Cloudy,280,2012-10-02 11:53:00
7:53 AM,63.0,60.1,90,29.88,8.0,Calm,Calm,-,N/A,,Partly Cloudy,0,2012-10-02 12:53:00
8:53 AM,68.0,59.0,73,29.90,8.0,WNW,4.6,-,N/A,,Clear,300,2012-10-02 13:53:00
9:53 AM,72.0,59.0,64,29.92,10.0,NW,4.6,-,N/A,,Partly Cloudy,310,2012-10-02 14:53:00
10:53 AM,73.9,57.0,55,29.93,10.0,Calm,Calm,-,N/A,,Scattered Clouds,0,2012-10-02 15:53:00
11:53 AM,75.9,55.9,50,29.93,10.0,WNW,4.6,-,N/A,,Scattered Clouds,300,2012-10-02 16:53:00
12:53 PM,78.1,57.9,50,29.91,10.0,Variable,4.6,-,N/A,,Scattered Clouds,0,2012-10-02 17:53:00
1:53 PM,80.1,55.0,42,29.90,10.0,Variable,3.5,-,N/A,,Scattered Clouds,0,2012-10-02 18:53:00
2:53 PM,79.0,57.0,47,29.89,10.0,North,5.8,-,N/A,,Scattered Clouds,360,2012-10-02 19:53:00
3:53 PM,78.1,55.9,46,29.89,10.0,NE,3.5,-,N/A,,Mostly Cloudy,40,2012-10-02 20:53:00
4:53 PM,78.1,57.0,48,29.90,10.0,East,6.9,-,N/A,,Mostly Cloudy,100,2012-10-02 21:53:00
5:53 PM,77.0,55.0,47,29.90,10.0,East,3.5,-,N/A,,Mostly Cloudy,100,2012-10-02 22:53:00
6:53 PM,75.2,55.4,50,29.90,10.0,SE,3.5,-,N/A,,Mostly Cloudy,140,2012-10-02 23:53:00
7:53 PM,72.0,59.0,64,29.93,10.0,South,4.6,-,N/A,,Scattered Clouds,180,2012-10-03 00:53:00
8:53 PM,70.0,60.1,71,29.96,10.0,South,4.6,-,N/A,,Partly Cloudy,180,2012-10-03 01:53:00
9:53 PM,71.1,60.1,68,29.98,10.0,Calm,Calm,-,N/A,,Clear,0,2012-10-03 02:53:00
10:53 PM,66.9,60.1,79,30.00,10.0,SE,3.5,-,N/A,,Clear,140,2012-10-03 03:53:00
11:53 PM,68.0,61.0,78,30.01,10.0,SE,3.5,-,N/A,,Scattered Clouds,130,2012-10-03 04:53:00